Simultaneous Nadir Overpasses (SNOs) Predictions

Prediction of SNOs between AQUA and METOP-A Satellite Orbit:

Table of predicted SNOs for the next 14.0 days since TLE Epoch: 12/17/2016
Index Date (AQUA) Time (AQUA) Lat,Lon (AQUA) SZA (AQUA ) Date (METOP-A) Time (METOP-A) Lat,Lon (METOP-A) SZA (METOP-A ) Distance(km) Time Diff (sec)
1 12/19/2016 12:43:38 73.80, -16.75 97.20 12/19/2016 12:43:09 73.83, -16.72 97.23 3.22 29
2 12/19/2016 13:33:05 -73.86, 150.77 82.75 12/19/2016 13:33:50 -73.89, 150.75 82.72 3.50 45
3 12/22/2016 07:28:13 -73.12,-116.51 83.51 12/22/2016 07:27:07 -73.09,-119.34 83.45 91.51 66
4 12/22/2016 08:17:53 73.79, 49.71 97.20 12/22/2016 08:17:32 73.81, 49.63 97.22 3.00 21
5 12/22/2016 09:07:21 -73.90,-142.88 82.69 12/22/2016 09:08:12 -73.92,-142.79 82.68 3.45 51
6 12/25/2016 03:02:35 -73.43, -50.71 83.23 12/25/2016 03:01:25 -73.36, -52.33 83.24 52.18 70
7 12/25/2016 03:52:10 73.84, 116.04 97.21 12/25/2016 03:51:55 73.83, 116.09 97.20 1.95 15
8 12/25/2016 04:41:37 -73.89, -76.43 82.74 12/25/2016 04:42:36 -73.89, -76.45 82.75 0.66 59
9 12/27/2016 22:36:56 -73.69, 15.17 83.05 12/27/2016 22:35:43 -73.63, 14.69 83.09 16.55 73
10 12/27/2016 23:26:26 73.85,-177.53 97.11 12/27/2016 23:26:18 73.85,-177.46 97.12 2.06 8
11 12/28/2016 00:15:53 -73.90, -10.00 82.84 12/28/2016 00:16:59 -73.91, -9.99 82.83 1.50 66
12 12/30/2016 18:11:12 -73.76, 81.47 83.15 12/30/2016 18:10:03 -73.75, 81.37 83.15 3.39 69
13 12/30/2016 19:00:41 73.86,-111.11 96.96 12/30/2016 19:00:40 73.87,-111.02 96.97 3.24 1




NCC Satellite Simultaneous Nadir Overpasses (SNOs) Prediction Service
